Flag for U.S.A. Weather past 2 weeks in San Angelo, Texas, U.S.A.

Now
36 °F

Sunny.


Feels Like: 30 °F
Forecast: 38 / 65 °F
Wind: 7 mph from West

Location: Mathis Field

Current Time: Jan 25, 2015 at 8:27:57 AM

Latest Report: Jan 25, 2015 at 7:51 AM


Visibility: 10 mi

Pressure: 30.14 "Hg

Humidity: 82%

Dew point: 31 °F

Location of San AngeloLocation

Historic Weather in San Angelo — Graph

°F

San Angelo temperature yesterday

Maximum temperature yesterday: 62 °F (at 3:51 PM)
Minimum temperature yesterday: 30 °F (at 5:51 AM)
Average temperature yesterday: 44 °F

Past Weeks' High & Low Weather Summary

 TemperatureHumidityPressure
High78 °F (Jan 20, 3:51 PM)97% (Jan 11, 5:51 AM)30.51 "Hg (Jan 11, 5:51 AM)
Low27 °F (Jan 16, 6:51 AM)15% (Jan 19, 4:51 PM)29.88 "Hg (Jan 20, 2:51 PM)
Average43 °F69%30.21 "Hg
* Reported Jan 10 6:51 AM — Jan 25 6:51 AM, San Angelo, Weather by CustomWeather, © 2014

Note: Actual official high and low records may vary slightly from our data, if they occured in-between our weather recording intervals... More about our weather records

Advertising

San Angelo weather history for previous 24 hours

 ConditionsComfort  
Time TempWeatherWind HumidityBarometerVisibility
6:51 AM
Jan 25
37 °FClear.9 mph82%30.11 "Hg10 mi
5:51 AM38 °FClear.5 mph79%30.08 "Hg10 mi
4:51 AM36 °FClear.6 mph85%30.06 "Hg10 mi
3:51 AM37 °FClear.5 mph86%30.06 "Hg10 mi
2:51 AM35 °FClear.3 mph85%30.06 "Hg10 mi
1:51 AM42 °FClear.10 mph73%30.04 "Hg10 mi
12:51 AM43 °FClear.9 mph74%30.06 "Hg10 mi
11:51 PM
Jan 24
42 °FClear.No wind79%30.07 "Hg10 mi
10:51 PM42 °FClear.10 mph82%30.07 "Hg10 mi
9:51 PM44 °FClear.8 mph79%30.09 "Hg10 mi
8:51 PM47 °FClear.7 mph74%30.10 "Hg10 mi
7:51 PM47 °FClear.10 mph74%30.10 "Hg10 mi
6:51 PM50 °FClear.9 mph66%30.10 "Hg10 mi
5:51 PM56 °FSunny.7 mph53%30.11 "Hg10 mi
4:51 PM60 °FSunny.9 mph42%30.10 "Hg10 mi
3:51 PM62 °FSunny.10 mph37%30.12 "Hg10 mi
2:51 PM61 °FSunny.9 mph39%30.14 "Hg10 mi
1:51 PM60 °FSunny.12 mph39%30.17 "Hg10 mi
12:51 PM56 °FSunny.8 mph46%30.21 "Hg10 mi
11:51 AM51 °FSunny.5 mph52%30.26 "Hg10 mi
10:51 AM45 °FSunny.8 mph63%30.28 "Hg10 mi
9:51 AM40 °FSunny.7 mph68%30.29 "Hg10 mi
8:51 AM35 °FSunny.7 mph75%30.30 "Hg10 mi
Weather by CustomWeather, © 2014

See weather overviewHow to use our weather pages